Time,TemperatureF,DewpointF,PressureIn,WindDirection,WindDirectionDegrees,WindSpeedMPH,WindSpeedGustMPH,Humidity,HourlyPrecipIn,Conditions,Clouds,dailyrainin,SoftwareType,DateUTC
2015-04-24 00:10:00,54.0,45.0,29.83,SW,236,10.0,15.0,71,-99.99,,,-99.99,,2015-04-24 07:10:00,
2015-04-24 00:21:00,54.0,45.0,29.83,WSW,241,10.0,15.0,71,-99.99,,,-99.99,,2015-04-24 07:21:00,
2015-04-24 00:51:00,54.0,45.0,29.83,WSW,246,13.0,19.0,71,-99.99,,,-99.99,,2015-04-24 07:51:00,
2015-04-24 01:01:00,54.0,44.0,29.82,SW,223,9.0,14.0,70,-99.99,,,-99.99,,2015-04-24 08:01:00,
2015-04-24 01:10:00,54.0,44.0,29.83,WSW,258,12.0,15.0,70,-99.99,,,-99.99,,2015-04-24 08:10:00,
2015-04-24 01:31:00,54.0,44.0,29.83,SW,235,9.0,15.0,69,-99.99,,,-99.99,,2015-04-24 08:31:00,
2015-04-24 01:41:00,54.0,44.0,29.83,WSW,238,10.0,15.0,69,-99.99,,,-99.99,,2015-04-24 08:41:00,
2015-04-24 01:51:00,54.0,44.0,29.83,WSW,242,10.0,13.0,70,-99.99,,,-99.99,,2015-04-24 08:51:00,
2015-04-24 02:21:00,53.0,44.0,29.83,WSW,258,12.0,20.0,72,-99.99,,,-99.99,,2015-04-24 09:21:00,
2015-04-24 02:41:00,53.0,44.0,29.81,WSW,249,12.0,16.0,72,-99.99,,,-99.99,,2015-04-24 09:41:00,
2015-04-24 02:51:00,53.0,44.0,29.81,WSW,249,10.0,16.0,72,-99.99,,,-99.99,,2015-04-24 09:51:00,
2015-04-24 03:21:00,52.0,44.0,29.81,SW,234,7.0,12.0,73,-99.99,,,-99.99,,2015-04-24 10:21:00,
2015-04-24 03:51:00,51.0,44.0,29.82,SW,234,0.0,13.0,76,-99.99,,,-99.99,,2015-04-24 10:51:00,
2015-04-24 04:01:00,51.0,44.0,29.83,SW,229,11.0,16.0,77,-99.99,,,-99.99,,2015-04-24 11:01:00,
2015-04-24 04:11:00,51.0,44.0,29.83,WSW,249,11.0,16.0,76,-99.99,,,-99.99,,2015-04-24 11:11:00,
2015-04-24 04:31:00,51.0,43.0,29.83,WSW,241,8.0,15.0,75,-99.99,,,-99.99,,2015-04-24 11:31:00,
2015-04-24 04:51:00,51.0,44.0,29.82,West,266,11.0,17.0,76,-99.99,,,-99.99,,2015-04-24 11:51:00,
2015-04-24 05:01:00,51.0,44.0,29.81,West,259,3.0,16.0,76,-99.99,,,-99.99,,2015-04-24 12:01:00,
2015-04-24 05:11:00,51.0,44.0,29.82,West,278,7.0,12.0,76,-99.99,,,-99.99,,2015-04-24 12:11:00,
2015-04-24 05:21:00,50.0,43.0,29.82,West,279,8.0,12.0,77,-99.99,,,-99.99,,2015-04-24 12:21:00,
2015-04-24 05:51:00,51.0,44.0,29.84,WNW,292,4.0,11.0,77,-99.99,,,-99.99,,2015-04-24 12:51:00,
2015-04-24 06:21:00,51.0,44.0,29.84,West,277,6.0,10.0,77,-99.99,,,-99.99,,2015-04-24 13:21:00,
2015-04-24 06:51:00,52.0,45.0,29.84,West,278,2.0,7.0,76,-99.99,,,-99.99,,2015-04-24 13:51:00,
2015-04-24 07:21:00,52.0,45.0,29.85,WSW,242,7.0,13.0,76,-99.99,,,-99.99,,2015-04-24 14:21:00,
2015-04-24 07:51:00,53.0,45.0,29.87,WSW,247,7.0,13.0,75,-99.99,,,-99.99,,2015-04-24 14:51:00,
2015-04-24 08:21:00,53.0,45.0,29.88,West,262,8.0,14.0,75,-99.99,,,-99.99,,2015-04-24 15:21:00,
2015-04-24 08:51:00,53.0,45.0,29.88,WNW,290,10.0,17.0,75,-99.99,,,-99.99,,2015-04-24 15:51:00,
2015-04-24 09:21:00,52.0,44.0,29.90,West,263,8.0,16.0,75,-99.99,,,-99.99,,2015-04-24 16:21:00,
2015-04-24 09:51:00,52.0,45.0,29.90,West,278,10.0,20.0,76,-99.99,,,-99.99,,2015-04-24 16:51:00,
2015-04-24 10:01:00,52.0,45.0,29.90,West,269,12.0,19.0,76,-99.99,,,-99.99,,2015-04-24 17:01:00,
2015-04-24 10:11:00,52.0,45.0,29.91,SW,227,11.0,18.0,76,-99.99,,,-99.99,,2015-04-24 17:11:00,
2015-04-24 10:21:00,53.0,46.0,29.91,WSW,247,10.0,17.0,76,-99.99,,,-99.99,,2015-04-24 17:21:00,
2015-04-24 10:51:00,53.0,45.0,29.91,WNW,299,8.0,18.0,74,-99.99,,,-99.99,,2015-04-24 17:51:00,
2015-04-24 11:01:00,54.0,46.0,29.93,NW,319,9.0,16.0,73,-99.99,,,-99.99,,2015-04-24 18:01:00,
2015-04-24 11:11:00,55.0,47.0,29.95,WNW,302,7.0,16.0,74,-99.99,,,-99.99,,2015-04-24 18:11:00,
2015-04-24 11:31:00,55.0,46.0,29.94,West,275,9.0,16.0,71,-99.99,,,-99.99,,2015-04-24 18:31:00,
2015-04-24 11:42:00,55.0,45.0,29.95,West,272,8.0,17.0,70,-99.99,,,-99.99,,2015-04-24 18:42:00,
2015-04-24 11:51:00,55.0,46.0,29.95,WNW,292,9.0,15.0,71,-99.99,,,-99.99,,2015-04-24 18:51:00,
2015-04-24 12:02:00,56.0,46.0,29.93,West,262,9.0,16.0,70,-99.99,,,-99.99,,2015-04-24 19:02:00,
2015-04-24 12:11:00,57.0,47.0,29.93,WNW,288,9.0,15.0,69,-99.99,,,-99.99,,2015-04-24 19:11:00,
2015-04-24 12:21:00,58.0,47.0,29.93,WSW,252,7.0,15.0,67,-99.99,,,-99.99,,2015-04-24 19:21:00,
2015-04-24 12:42:00,60.0,47.0,29.92,West,259,7.0,20.0,63,-99.99,,,-99.99,,2015-04-24 19:42:00,
2015-04-24 13:21:00,58.0,45.0,29.91,WSW,256,7.0,10.0,62,-99.99,,,-99.99,,2015-04-24 20:21:00,
2015-04-24 13:41:00,57.0,45.0,29.92,SW,235,9.0,14.0,65,-99.99,,,-99.99,,2015-04-24 20:41:00,
2015-04-24 13:51:00,57.0,46.0,29.92,SSW,204,12.0,16.0,66,-99.99,,,-99.99,,2015-04-24 20:51:00,
2015-04-24 14:01:00,57.0,46.0,29.91,SW,233,8.0,21.0,66,-99.99,,,-99.99,,2015-04-24 21:01:00,
2015-04-24 14:11:00,57.0,45.0,29.91,South,187,8.0,19.0,65,-99.99,,,-99.99,,2015-04-24 21:11:00,
2015-04-24 14:31:00,57.0,47.0,29.91,South,191,11.0,21.0,68,-99.99,,,-99.99,,2015-04-24 21:31:00,
2015-04-24 14:41:00,57.0,46.0,29.91,SSW,210,13.0,19.0,66,-99.99,,,-99.99,,2015-04-24 21:41:00,
2015-04-24 14:51:00,57.0,46.0,29.91,SSW,204,12.0,19.0,66,-99.99,,,-99.99,,2015-04-24 21:51:00,
2015-04-24 15:21:00,58.0,46.0,29.90,South,187,13.0,18.0,65,-99.99,,,-99.99,,2015-04-24 22:21:00,
2015-04-24 15:51:00,61.0,46.0,29.90,WSW,242,8.0,16.0,58,-99.99,,,-99.99,,2015-04-24 22:51:00,
2015-04-24 16:01:00,61.0,46.0,29.88,WSW,246,8.0,16.0,57,-99.99,,,-99.99,,2015-04-24 23:01:00,
2015-04-24 16:11:00,62.0,47.0,29.88,WSW,240,10.0,18.0,57,-99.99,,,-99.99,,2015-04-24 23:11:00,
2015-04-24 16:21:00,62.0,46.0,29.88,WSW,245,9.0,17.0,56,-99.99,,,-99.99,,2015-04-24 23:21:00,
2015-04-24 17:21:00,62.0,44.0,29.88,North,360,9.0,17.0,52,-99.99,,,-99.99,,2015-04-25 00:21:00,
2015-04-24 17:51:00,62.0,44.0,29.89,WNW,287,8.0,16.0,51,-99.99,,,-99.99,,2015-04-25 00:51:00,
2015-04-24 18:21:00,61.0,43.0,29.89,West,277,5.0,16.0,52,-99.99,,,-99.99,,2015-04-25 01:21:00,
2015-04-24 18:51:00,60.0,44.0,29.89,SW,234,7.0,19.0,56,-99.99,,,-99.99,,2015-04-25 01:51:00,
2015-04-24 19:21:00,58.0,44.0,29.89,SW,232,10.0,16.0,59,-99.99,,,-99.99,,2015-04-25 02:21:00,
2015-04-24 19:51:00,57.0,44.0,29.89,SW,227,9.0,14.0,61,-99.99,,,-99.99,,2015-04-25 02:51:00,
2015-04-24 20:01:00,57.0,44.0,29.89,WSW,241,12.0,16.0,61,-99.99,,,-99.99,,2015-04-25 03:01:00,
2015-04-24 20:11:00,57.0,44.0,29.90,WSW,240,12.0,17.0,62,-99.99,,,-99.99,,2015-04-25 03:11:00,
2015-04-24 20:21:00,57.0,44.0,29.90,SW,222,9.0,15.0,62,-99.99,,,-99.99,,2015-04-25 03:21:00,
2015-04-24 20:51:00,56.0,43.0,29.89,WSW,244,12.0,18.0,61,-99.99,,,-99.99,,2015-04-25 03:51:00,
2015-04-24 21:01:00,56.0,42.0,29.89,SW,232,12.0,20.0,60,-99.99,,,-99.99,,2015-04-25 04:01:00,
2015-04-24 21:11:00,56.0,42.0,29.89,SSW,207,14.0,19.0,59,-99.99,,,-99.99,,2015-04-25 04:11:00,
2015-04-24 21:31:00,56.0,41.0,29.89,SW,229,12.0,17.0,58,-99.99,,,-99.99,,2015-04-25 04:31:00,
2015-04-24 21:51:00,56.0,42.0,29.93,SW,227,11.0,17.0,59,-99.99,,,-99.99,,2015-04-25 04:51:00,
2015-04-24 22:01:00,56.0,42.0,29.91,WSW,247,13.0,19.0,60,-99.99,,,-99.99,,2015-04-25 05:01:00,